Hourly Data Report for October 03, 2019

TORONTO CITY
ONTARIO
Current Station Operator: ECCC - MSC

43°40'00.000" N
79°24'00.000" W
112.50 m
6158355
71508
XTO

Download Data

Hourly Data (October 2019)
Hourly Data Report for October 3, 2019
TIME
LST
Temp Definition
°C
Dew Point Definition
°C
Rel Hum Definition
%
Precip. Amount Definition
mm

Wind Dir Definition
10's deg

Wind Spd Definition
km/h
Visibility Definition
km
Stn Press Definition
kPa
Hmdx Definition


Wind Chill Definition


Weather Definition


00:00 10.1 3.1 62 0.0       100.64     LegendNANA
01:00 10.4 3.3 61 0.0       100.62     LegendNANA
02:00 10.5 3.6 63 0.0       100.63     LegendNANA
03:00 9.8 3.2 63 0.0       100.60     LegendNANA
04:00 10.1 4.6 68 0.0       100.52     LegendNANA
05:00 9.6 3.6 66 0.0       100.64     LegendNANA
06:00 9.7 4.4 70 0.0       100.58     LegendNANA
07:00 10.3 6.5 77 0.0       100.49     LegendNANA
08:00 9.8 6.2 79 0.0       100.41     LegendNANA
09:00 9.2 6.1 81 0.0       100.40     LegendNANA
10:00 9.8 6.2 78 0.0       100.26     LegendNANA
11:00 10.3 6.7 78 0.0       100.22     LegendNANA
12:00 10.4 8.3 87 0.2       100.16     LegendNANA
13:00 11.1 9.4 89 0.5       100.02     LegendNANA
14:00 12.2 10.3 88 0.0       99.93     LegendNANA
15:00 12.2 10.2 88 0.0       99.93     LegendNANA
16:00 12.2 10.4 89 0.5       99.90     LegendNANA
17:00 12.4 10.8 90 0.3       99.91     LegendNANA
18:00 12.2 10.5 89 0.2       99.97     LegendNANA
19:00 11.6 10.0 90 0.3       100.04     LegendNANA
20:00 11.2 9.4 89 0.0       100.10     LegendNANA
21:00 11.3 9.7 90 0.2       100.13     LegendNANA
22:00 11.4 9.9 90 0.0       100.17     LegendNANA
23:00 10.8 9.4 91 0.0       100.20     LegendNANA

Notes on Data Quality.

Legend

  • E = Estimated
  • M = Missing
  • NA = Not Available*
  • [empty] = Indicates an unobserved value
Date modified: